Find Dongpo 11

NORAD ID: 68206 Int'l Des: NNA 2026-052 Owner: HUANTZ Country: CN operational
LEORETROGRADE

現在のビュー

3D地球を読み込み中...

About Dongpo 11

Dongpo 11 (NORAD 68206) is a satellite launched Mar 16, 2026 by HUANTZ of CN. It operates in LEO, RETROGRADE orbit with a mass of 100.00 kg.

次回通過

Passes for default location (London). Set your location on the main map for personalized predictions.

高度履歴

Loading altitude history...

軌道要素

1 68206U 26052J 26167.17113613 .00076549 24241-5 97567-3 0 9998
2 68206 97.3332 235.4430 0489392 71.8832 293.5037 14.82080546 13557
Epoch: Jun 16, 2026 • Age: 8 hours

現在のステータス

高度 964.9 km
速度 7.20 km/s
衛星直下点 -82.00°S, 140.38°W
打ち上げ日 Mar 16, 2026
運用期間 0.2 years
タイプ other

技術仕様

分類 Payload
質量 100.00 kg
乾燥質量 100.00 kg
総質量 100.00 kg
長さ 1.50 m
直径 1.00 m
スパン 1.50 m
形状 Box
製造者 WEINA
バスタイプ Dongpo
フェーズステータス In Orbit
所有者/国 HUANTZ/CN

Most Searched